Preview of NWS' New Version of Forecast
This preview is not operational and should not be used for support decisions.

Regional Weather Roundup (RWR)

Issued by National Weather Service (NWS)

                            
000
ASUS45 KABQ 200601
RWRNM 
NEW MEXICO REGIONAL WEATHER ROUNDUP
NATIONAL WEATHER SERVICE ALBUQUERQUE NM
1200 AM MDT TUE AUG 20 2019

NOTE: "FAIR" MEANS FEW OR NO CLOUDS BELOW 12,000 FEET AGL WITH NO
       SIGNIFICANT WEATHER OR OBSTRUCTIONS TO VISION.

      THIS PRODUCT IS RELEASED AS TWO VERSIONS.  ONE VERSION NEAR
      THE TOP OF THE HOUR CONTAINING PRELIMINARY DATA FROM ALBUQUERQUE
      AND OTHER STATIONS.  A FINAL VERSION WITH ADDITIONAL DATA IS 
      ISSUED ABOUT 10 MINUTES AFTER THE HOUR.
 
NMZ501-503-504-510>518-200700-
NORTHWEST PLATEAU/NORTHCENTRAL MOUNTAINS
  
CITY           SKY/WX    TMP DP  RH WIND       PRES   REMARKS
FARMINGTON     FAIR      67  22  18 N6        30.14R                  
6HR MIN TEMP:  67; 6HR MAX TEMP:  94;                                

LOS ALAMOS       N/A     72  37  27 S6        30.34S                  
SANTA FE       FAIR      74  42  31 E12       30.26R                  
6HR MIN TEMP:  74; 6HR MAX TEMP:  91;                                

TAOS             N/A     63  36  36 E8        30.34R                  
ANGEL FIRE     FAIR      52  41  67 CALM      30.44S                  

$$
NMZ402-403-502-505>509-200700-
WESTCENTRAL MOUNTAINS/SOUTHWEST MOUNTAINS
  
CITY           SKY/WX    TMP DP  RH WIND       PRES   REMARKS
GALLUP         FAIR      66  23  19 SE3       30.26R                  
6HR MIN TEMP:  65; 6HR MAX TEMP:  91;                                

GRANTS         FAIR      62  30  30 N6        30.28S                  
SILVER CITY    FAIR      72  42  32 NW5       30.18S                  

$$
NMZ407-409-411-412-200700-
SOUTHERN DESERTS
  
CITY           SKY/WX    TMP DP  RH WIND       PRES   REMARKS
DEMING         FAIR      78  44  29 CALM      30.08R                  
6HR MIN TEMP:  78; 6HR MAX TEMP:  97;                                

LAS CRUCES     FAIR      85  45  24 S10       30.12R                  
ALAMOGORDO     FAIR      86  46  25 NW5       30.09R                  
T OR C         FAIR      84  46  26 N3        30.11S                  
6HR MIN TEMP:  84; 6HR MAX TEMP:  95;                                


$$
NMZ519>523-200700-
CENTRAL VALLEYS/CENTRAL HIGHLANDS
  
CITY           SKY/WX    TMP DP  RH WIND       PRES   REMARKS
ALBUQUERQUE    FAIR      79  45  29 S6        30.16R                  
6HR MIN TEMP:  78; 6HR MAX TEMP:  94;                                

CLINES CORNERS FAIR      66  43  43 S12       30.33S                  
6HR MIN TEMP:  66; 6HR MAX TEMP:  85;                                

BELEN          FAIR      76  41  28 S8        30.15S                  
6HR MIN TEMP:  76; 6HR MAX TEMP:  96;                                

SOCORRO        FAIR      75  43  31 S5        30.13S                  
6HR MIN TEMP:  75; 6HR MAX TEMP:  95;                                


$$
NMZ524>526-539-540-200700-
SOUTHCENTRAL MOUNTAINS
  
CITY           SKY/WX    TMP DP  RH WIND       PRES   REMARKS
RUIDOSO        LGT RAIN  68  52  56 SE7       30.35F                  

$$
NMZ527>531-200700-
NORTHEAST HIGHLANDS/NORTHEAST PLAINS
  
CITY           SKY/WX    TMP DP  RH WIND       PRES   REMARKS
LAS VEGAS      FAIR      60  43  53 SW9       30.32R                  
6HR MIN TEMP:  60; 6HR MAX TEMP:  83;                                

RATON          FAIR      69  44  40 S14       30.24S                  
6HR MIN TEMP:  66; 6HR MAX TEMP:  89;                                

CLAYTON        FAIR      72  49  44 SW9       30.15R                  
6HR MIN TEMP:  68; 6HR MAX TEMP:  92;                                


$$
NMZ532>537-200700-
EASTCENTRAL PLAINS
  
CITY           SKY/WX    TMP DP  RH WIND       PRES   REMARKS
TUCUMCARI      FAIR      75  51  43 SW8       30.07S                  
6HR MIN TEMP:  75; 6HR MAX TEMP:  93;                                

CANNON AFB     NOT AVBL                                               
CLOVIS AIRPORT FAIR      77  56  48 CALM      30.14S                  

$$
NMZ028-029-538-200700-
SOUTHEAST PLAINS
  
CITY           SKY/WX    TMP DP  RH WIND       PRES   REMARKS
ROSWELL        FAIR      85  54  34 E7        30.07R                  
6HR MIN TEMP:  85; 6HR MAX TEMP:  95;                                

ARTESIA        FAIR      88  57  35 S16G24    30.08S                  
CARLSBAD       FAIR      87  52  29 SE15      30.04R                  
6HR MIN TEMP:  87; 6HR MAX TEMP:  99;                                

HOBBS          FAIR      82  54  36 S10       30.09S                  


$$